Location: Pasarilla del Rebollar
(40.6790°N, 5.0062°W)
Time: 11:37:11
(UTC+00:00)

Envisat - Pass Details

Date: 22 April 2026
Orbit: 761 x 762 km, 98.4° (Epoch: 20 May)

Event Time Altitude Azimuth Distance (km) Brightness Sun altitude
Rises 03:33:07 0° 6° (N) 3,232 6.9 -20.6°
Reaches altitude 10° 03:35:30 10° 360° (N) 2,302 6.0 -20.3°
Maximum altitude 03:40:17 44° 290° (WNW) 1,054 3.4 -19.6°
Enters shadow 03:41:32 37° 253° (WSW) 1,181 3.5 -19.4°
